Location: ?????????
(41.1143°N, 22.7905°E)
Time: 21:33:21
(UTC+00:00)

Gbstr 26 Del rocket - Pass Details

Date: 13 December 2025
Orbit: 490 x 1218 km, 51.8° (Epoch: 21 January)

Event Time Altitude Azimuth Distance (km) Brightness Sun altitude
Rises 15:21:08 0° 247° (WSW) 2,948 9.5 -4.2°
Reaches altitude 10° 15:23:40 10° 252° (WSW) 1,938 7.4 -4.6°
Maximum altitude 15:27:52 50° 329° (NNW) 695 3.4 -5.4°
Drops below altitude 10° 15:31:35 10° 46° (NE) 1,719 4.7 -6.0°
Enters shadow 15:32:14 - 48° (NE) 1,971 5.0 -6.1°
